User: anonymous   Login
Location: Unspecified
(0.0000°N, 0.0000°E)
Time: 06:27:54
(UTC+02:00)
Language:

Meteor 1-10 Rocket - Orbit

View from above orbital plane
View from above orbital plane
View from above satellite
View from above satellite

Ground track
Ground track

The orbit data is extracted from the following two-line orbital elements,

1 05732U 71120B   15087.77409559  .00000090  00000-0  46532-4 0  9998
2 05732 081.2542 186.9090 0051992 163.0585 197.2335 14.05872948224925
Epoch (UTC): 28 March 2015 18:34:41
Eccentricity: 0.0051992
inclination: 81.2542°
perigee height: 836 km
apogee height: 911 km
right ascension of ascending node: 186.9090°
argument of perigee: 163.0585°
revolutions per day: 14.05872948
mean anomaly at epoch: 197.2335°
orbit number at epoch: 22492

The dashed part of the orbit path shows where the satellite is in the earth's shadow,  

DLR